Wind_Speed
6 5 6 7 7 7 7 7 6 5 4 4 4 5 5 6 5 4 4 6 6 5 6 5 6 8 8 6 7 9 8 6 4 4 4 4 5 7 11 15 15 15 15 15 17 16 16 25 29 24 23 22 20 21 21 21 20 20 21 20 18 17 16 15 13 13 14 14 13 16 20 24 24 22 22 23 23 25 27 28 26 24 23 22 21 20
5 4 5 6 6 7 7 8 8 8 6 5 5 6 7 7 7 6 5 6 6 5 5 6 6 7 7 5 6 9 10 8 6 6 4 2 2 4 9 12 13 15 18 19 20 18 18 27 30 25 25 23 22 22 20 20 19 18 19 20 20 19 17 16 14 14 14 13 12 12 15 19 22 22 21 21 22 24 26 29 28 26 25 23 22 21
2 2 3 4 3 4 4 6 8 9 9 8 7 8 7 7 8 7 5 5 6 5 5 6 5 6 6 4 4 7 9 8 6 6 7 6 3 3 7 10 10 12 17 20 22 22 23 28 29 26 25 24 21 20 18 18 18 19 19 19 21 20 19 18 17 15 15 14 13 12 12 14 18 22 24 23 23 26 28 30 30 28 26 24 23 22
2 3 4 4 3 2 2 3 6 9 9 9 9 8 6 6 6 6 6 7 7 6 5 5 5 4 4 3 2 5 8 8 7 6 7 9 8 6 7 9 11 10 12 16 20 24 27 28 27 27 26 25 22 20 19 19 19 20 19 19 20 20 20 20 18 17 17 17 17 15 14 14 16 20 26 29 27 27 29 30 31 30 28 26 25 24
3 5 4 2 3 2 2 2 4 6 7 7 8 8 6 5 6 7 8 9 8 7 5 4 4 5 7 4 1 3 6 9 9 7 6 9 11 11 10 11 13 12 12 13 16 22 27 28 27 29 30 28 25 21 20 20 19 20 20 20 20 20 21 21 21 20 19 20 20 19 19 18 17 19 26 32 31 28 28 30 31 31 29 27 26 26
5 4 3 3 4 5 4 3 3 4 5 5 6 7 6 5 5 6 7 8 7 6 5 4 3 5 8 7 3 3 5 8 11 11 8 9 12 14 14 14 15 15 14 15 16 19 25 27 27 30 34 34 29 22 20 22 21 21 22 22 22 22 22 23 23 23 22 22 22 22 22 20 18 19 23 30 32 28 26 26 29 31 31 30 28 28
5 4 5 5 5 6 5 4 4 4 4 4 4 4 5 5 6 7 7 7 7 6 5 5 4 4 7 7 7 6 4 6 10 13 12 11 12 15 16 16 16 17 17 17 17 18 23 27 29 31 34 35 32 26 24 24 23 23 24 24 24 24 24 25 26 27 26 24 24 24 24 23 21 20 20 23 28 30 28 27 29 31 32 32 30 30
6 7 7 7 7 6 4 3 3 4 5 4 3 3 4 5 7 8 7 8 9 9 9 8 7 7 7 6 8 7 4 4 8 11 13 13 12 12 15 17 18 18 19 20 20 19 21 25 30 33 36 36 33 30 27 26 25 25 25 25 26 26 28 30 32 31 29 26 25 25 25 25 24 23 22 21 24 29 33 33 32 31 32 33 33 32
10 10 8 8 9 7 5 4 4 4 6 4 2 2 3 5 7 8 7 8 8 8 8 6 6 6 4 5 7 7 6 6 6 10 13 13 13 13 13 16 19 19 19 21 24 24 23 24 27 31 36 38 36 32 29 27 26 26 27 27 27 28 30 33 31 29 27 27 27 27 26 26 26 25 25 24 25 28 34 36 34 32 32 34 34 33
10 11 9 9 9 8 7 6 5 5 6 4 3 4 4 6 7 6 7 8 7 5 5 5 5 4 3 3 6 7 8 8 6 9 13 13 15 16 14 13 14 16 18 21 25 28 27 26 27 28 32 38 39 36 32 29 28 28 28 29 29 29 31 32 28 24 25 27 29 29 28 28 27 27 27 27 27 29 33 36 35 34 33 33 34 34
9 10 10 9 9 9 7 6 6 5 6 6 6 5 5 7 7 7 8 7 5 3 2 2 4 5 3 3 4 5 7 9 8 10 10 8 10 13 12 10 9 10 13 18 24 27 29 29 29 28 28 34 40 40 37 34 31 30 30 31 31 31 31 31 29 28 29 30 31 31 30 30 29 29 28 29 29 29 33 36 36 36 35 32 33 34
7 6 7 7 7 6 6 6 5 4 5 6 7 7 5 5 4 5 5 3 2 1 1 2 1 4 2 2 5 6 6 8 8 8 7 3 2 4 9 12 12 11 11 15 22 25 27 30 31 31 29 31 37 41 40 38 35 33 33 33 34 33 33 34 34 34 34 33 33 32 32 33 32 32 31 31 31 30 32 34 36 37 36 33 32 33
5 4 5 5 5 5 5 6 6 5 6 8 8 7 4 1 2 2 2 1 2 2 1 1 0 1 1 1 5 7 6 6 6 5 4 2 2 4 8 12 12 14 13 13 18 21 23 26 31 33 32 32 35 38 41 40 38 37 35 35 36 36 35 36 38 40 38 37 36 33 33 34 35 35 35 35 36 33 32 34 34 34 35 33 31 30
4 1 3 4 5 6 6 7 7 6 6 7 6 4 3 2 3 2 2 1 3 2 1 1 2 2 1 3 6 8 8 6 4 5 3 2 1 7 5 8 9 13 15 15 17 19 18 20 25 30 32 32 33 35 37 38 39 39 38 38 37 36 37 39 41 41 38 37 37 33 31 33 35 36 37 37 38 36 33 34 34 33 33 32 30 29
4 2 3 3 5 6 6 6 7 7 5 4 4 3 3 2 2 2 3 1 2 1 1 1 2 2 2 2 7 10 12 7 3 3 1 2 2 9 8 3 5 12 16 17 18 19 18 17 19 24 26 28 28 29 31 32 35 36 36 38 37 35 37 37 36 38 37 35 34 29 28 31 34 36 37 37 38 37 35 34 34 33 33 32 29 29
4 4 4 4 5 5 5 5 6 7 6 3 4 3 2 3 2 1 1 1 0 1 2 2 1 3 4 2 6 5 7 5 7 7 7 6 1 6 7 8 7 7 15 19 20 19 20 18 17 19 19 21 22 24 26 28 30 31 31 33 34 34 35 30 26 30 33 32 30 28 28 31 34 35 36 36 37 37 35 35 35 32 28 28 28 29
4 4 4 6 8 8 8 7 6 6 5 3 4 3 1 2 2 1 2 1 2 2 1 2 1 2 2 2 3 2 4 5 10 9 9 8 3 3 4 6 9 9 6 14 18 19 21 21 19 18 17 18 19 23 26 26 26 26 27 28 30 32 34 32 27 26 26 26 27 30 31 32 33 34 35 36 36 36 33 32 35 34 29 26 27 29
6 7 7 8 10 9 8 8 8 7 7 6 4 3 1 1 2 3 2 1 2 1 0 1 2 4 4 3 4 4 2 8 8 6 7 6 4 2 3 4 6 8 8 5 9 12 15 17 18 18 17 16 15 18 22 22 22 21 20 20 19 18 21 26 27 25 24 22 25 30 32 32 32 33 34 35 35 34 32 31 33 35 32 29 28 28
7 8 7 7 7 7 8 8 8 8 8 9 6 4 3 3 2 3 2 0 1 0 1 1 3 5 7 5 3 5 3 3 5 6 8 7 5 3 3 3 3 4 4 4 5 7 9 11 13 14 13 12 10 11 13 14 14 13 11 10 8 6 7 11 14 18 21 22 24 28 30 31 33 34 34 34 33 33 32 30 31 33 34 33 32 30
6 6 4 5 7 8 9 8 9 8 6 7 7 5 4 5 4 3 4 2 3 2 1 1 1 4 7 6 4 3 2 1 2 3 5 7 6 5 4 3 1 1 1 1 2 4 6 8 10 11 11 10 10 9 9 9 10 10 10 9 8 9 10 9 8 11 13 16 20 23 25 27 31 34 35 34 33 33 31 27 28 30 32 34 35 34
6 5 5 8 9 7 6 4 5 7 6 5 6 5 4 6 4 2 4 4 3 3 2 2 1 5 10 9 4 3 2 2 3 3 4 6 6 6 6 5 2 2 3 3 4 5 6 6 7 8 9 9 10 10 9 9 9 10 10 12 13 15 16 14 12 12 12 14 16 17 18 21 25 28 31 32 32 33 32 30 30 31 31 34 36 36
6 5 8 10 7 4 2 1 2 4 4 4 4 4 5 6 4 2 3 5 4 3 3 4 1 5 12 10 5 3 3 5 6 5 5 7 8 8 9 7 4 1 2 4 5 5 7 7 8 8 8 8 10 11 12 12 13 12 11 12 15 18 18 17 17 16 16 17 17 16 15 15 18 22 25 27 28 29 30 31 32 33 34 35 36 38
7 6 8 6 2 2 1 1 3 4 5 4 3 2 4 6 6 4 3 4 4 4 4 4 1 4 12 11 7 6 7 8 7 6 6 6 7 9 10 10 8 6 3 2 3 5 6 8 9 10 11 11 11 12 14 15 16 17 16 13 15 19 19 19 21 21 21 22 22 20 18 16 16 18 20 23 23 23 24 26 28 31 33 36 38 41
7 6 5 1 2 0 1 1 1 2 2 2 1 1 3 5 6 5 6 5 4 5 5 3 1 5 12 13 10 9 9 9 8 8 6 6 7 9 10 11 10 9 8 6 4 4 5 7 8 10 12 13 14 14 16 18 18 19 20 19 20 22 23 23 24 25 25 26 27 26 24 22 19 18 18 20 21 22 23 24 26 29 31 35 40 44
6 5 3 1 2 1 1 0 1 1 2 3 3 2 3 5 5 4 6 7 5 5 6 3 1 7 12 13 13 12 11 9 7 6 6 7 8 9 10 11 11 11 11 10 9 8 6 6 7 9 11 13 15 16 17 19 21 21 21 23 25 26 27 27 27 28 28 29 30 31 30 29 27 23 21 20 21 25 27 29 31 34 36 39 42 43
6 4 2 0 1 1 0 1 2 1 3 4 4 4 4 6 7 4 4 6 6 5 7 5 4 7 11 12 14 13 11 8 5 5 6 8 9 9 10 11 11 12 11 11 11 11 10 8 7 7 8 10 13 16 18 20 22 23 23 24 26 28 29 28 28 27 27 28 30 32 33 33 32 31 28 25 25 27 30 32 33 36 39 42 43 42
6 8 6 5 5 5 4 5 5 5 3 2 2 3 4 7 8 7 6 6 6 6 7 7 5 6 9 12 14 12 8 5 5 5 7 9 10 10 10 10 11 11 11 11 11 11 11 10 9 8 8 8 10 12 15 18 21 24 25 25 26 27 28 28 27 26 25 26 27 29 32 34 34 34 33 31 31 31 32 32 32 32 35 38 41 42
5 7 9 8 8 8 7 7 8 8 7 6 5 4 1 4 7 9 10 8 8 7 7 7 7 6 7 9 9 6 4 4 5 7 8 10 11 11 11 10 10 10 9 10 11 12 12 12 11 10 9 9 9 10 12 14 17 20 24 26 28 29 29 29 29 28 26 26 26 26 28 31 33 34 35 34 34 35 35 34 33 32 31 33 35 38
4 4 5 5 5 5 5 6 6 7 8 8 7 6 4 1 3 7 10 10 9 8 7 7 6 4 6 6 5 4 5 6 7 9 10 11 12 13 13 12 11 10 9 10 11 12 13 13 13 13 12 11 10 10 11 12 13 15 18 22 26 29 31 31 31 30 29 29 28 28 28 29 30 32 33 34 35 36 37 37 36 35 34 34 33 34
4 4 3 3 4 5 5 6 7 8 8 9 8 8 6 3 0 3 6 8 9 9 9 7 5 5 6 5 5 6 7 8 9 10 11 12 13 13 13 13 13 12 12 12 12 12 13 14 14 14 13 12 11 10 11 12 13 14 15 17 20 24 28 31 33 33 33 32 31 31 31 31 31 31 32 33 34 35 36 37 37 37 38 38 37 36
5 5 5 5 6 6 6 7 8 10 11 9 8 6 5 3 2 1 3 5 7 9 8 6 5 5 5 5 6 7 9 9 10 10 11 12 12 13 14 14 13 13 14 14 14 14 14 14 14 13 11 11 12 11 11 12 13 14 15 15 17 19 22 26 30 33 35 36 35 34 34 34 34 34 34 33 34 34 34 35 36 37 37 38 39 40
5 5 5 6 6 6 7 7 8 10 9 7 7 5 3 3 3 1 2 4 6 7 7 7 6 5 4 5 6 7 9 9 9 10 11 11 12 13 13 13 12 12 13 14 15 15 14 13 12 11 10 10 11 12 12 12 12 13 14 15 16 17 19 21 25 29 34 36 38 38 37 37 37 37 37 37 37 36 36 36 36 36 36 37 38 39
3 4 6 6 6 7 8 8 9 9 6 4 7 7 5 5 4 2 1 2 3 5 6 6 5 5 5 5 6 7 8 8 8 9 9 10 10 11 10 9 10 11 11 12 12 12 12 11 11 11 10 10 11 12 12 12 13 13 13 13 14 15 17 19 21 24 28 32 36 38 39 40 40 40 41 40 40 40 40 39 39 38 37 37 37 38
1 3 5 6 7 8 8 10 10 7 3 4 7 7 6 6 4 3 2 1 1 2 4 5 5 5 4 3 4 6 7 7 7 8 7 8 8 8 8 8 9 10 10 10 10 10 10 10 10 11 10 11 11 12 12 13 13 14 14 13 13 14 15 17 18 20 22 26 30 34 36 39 40 42 43 43 43 43 43 42 41 41 41 40 39 40
2 3 5 6 7 7 9 9 6 3 5 9 10 7 6 6 5 4 4 4 3 3 3 4 5 4 3 3 6 8 9 8 8 7 7 7 8 8 9 10 11 12 12 11 11 10 10 11 11 11 11 11 11 12 13 13 13 13 14 14 14 14 14 15 16 18 19 21 24 27 30 34 37 39 42 43 45 46 46 45 44 43 43 43 43 42
3 4 5 5 6 6 7 5 3 6 11 11 9 6 5 5 5 6 6 6 5 5 5 6 6 5 5 6 8 10 12 10 9 8 8 8 9 10 11 11 12 12 12 12 12 12 12 11 12 12 11 11 11 11 12 12 12 12 12 13 14 14 15 15 15 16 17 19 21 23 25 28 31 35 38 41 44 46 47 47 47 46 46 46 45 45
5 5 6 6 5 4 5 7 9 12 10 7 5 4 3 3 4 6 7 7 7 7 6 6 7 7 6 7 9 11 13 11 10 9 8 9 10 11 11 12 12 12 13 12 13 13 13 13 12 13 13 12 11 11 11 11 11 11 10 11 12 13 14 15 15 16 16 17 19 20 23 25 27 30 33 37 40 43 45 47 47 47 48 49 48 48
7 7 7 6 5 5 7 8 8 8 5 5 4 2 2 2 3 6 8 8 6 5 5 5 6 7 7 8 9 11 12 11 10 9 9 9 10 11 12 12 12 12 12 12 13 13 14 14 14 14 14 14 13 12 12 12 11 11 10 10 11 12 14 14 15 16 17 17 18 19 21 22 24 27 30 33 37 39 42 44 45 45 47 49 50 49
9 9 9 9 9 9 8 6 4 4 5 6 5 2 2 3 4 6 8 8 7 5 4 3 5 6 7 8 10 11 11 9 9 9 9 10 11 11 12 12 12 12 13 13 14 15 16 16 16 16 16 16 16 14 14 13 13 13 12 12 12 13 14 15 16 16 17 18 19 20 21 21 23 24 26 29 33 36 38 40 41 42 43 45 47 48
10 11 11 12 13 13 12 10 9 8 8 8 7 5 4 3 4 5 6 8 9 6 2 1 3 5 7 8 9 9 9 9 9 9 9 10 11 11 12 13 13 14 14 15 15 16 17 18 18 18 17 18 18 17 17 16 17 16 16 16 16 16 16 17 17 18 18 19 20 21 22 23 24 24 25 26 28 31 34 36 37 38 39 40 42 42
9 11 12 13 14 14 13 12 12 12 11 9 7 5 4 4 4 4 5 8 9 5 1 1 2 4 5 6 7 8 9 9 9 9 10 10 10 11 13 14 15 15 16 16 16 17 18 18 18 17 17 18 18 19 18 18 19 19 19 18 18 18 18 18 19 19 19 19 20 21 23 24 25 26 26 27 27 28 30 33 35 35 35 35 35 35
8 8 9 11 11 10 10 11 10 10 9 6 4 5 6 5 4 4 7 8 8 6 5 3 3 4 4 6 7 9 10 11 11 11 11 11 12 13 14 14 14 15 15 16 16 16 16 16 16 15 15 16 17 18 18 19 19 19 19 19 18 18 18 18 18 18 18 18 19 20 22 24 25 26 27 27 27 26 27 30 33 34 33 32 31 31
8 7 7 8 8 7 7 7 6 5 6 6 5 6 6 5 4 5 8 8 9 9 7 5 5 5 5 6 8 9 10 11 11 12 13 13 13 14 14 13 14 14 15 16 16 15 14 14 14 13 13 14 15 17 17 18 18 18 18 17 16 16 16 16 16 16 16 17 18 19 21 23 25 26 26 26 26 25 24 25 29 31 32 32 31 31
8 8 7 7 7 6 6 6 5 6 8 9 7 6 6 6 5 6 8 10 11 11 9 6 6 6 6 6 8 9 10 10 11 12 13 13 13 13 13 13 14 15 16 16 16 16 16 15 15 14 13 13 14 16 17 17 16 16 15 14 13 13 14 14 14 15 15 16 16 18 20 23 25 25 26 25 25 24 23 21 22 26 29 30 31 32
7 7 7 6 7 6 7 7 8 9 9 8 7 7 8 8 7 8 10 11 13 13 12 9 6 5 5 6 7 8 9 9 10 11 12 12 12 12 12 13 14 15 16 16 17 17 16 16 16 15 15 15 16 17 18 17 16 16 15 14 13 13 13 14 14 15 16 16 16 17 19 21 23 24 24 24 23 22 21 20 19 21 24 27 30 31
7 7 7 7 7 7 7 6 6 6 7 8 8 9 9 9 9 10 11 12 14 15 14 11 8 6 6 6 7 8 8 9 9 10 10 10 10 11 12 13 14 14 14 15 15 15 15 15 15 15 15 15 16 17 18 18 17 17 17 16 15 15 15 16 16 17 18 18 18 18 19 20 21 22 22 22 21 20 20 19 18 19 22 25 27 29
10 10 10 10 10 9 7 5 5 6 6 7 9 10 10 10 10 11 12 13 14 15 14 12 10 8 8 8 7 7 7 8 8 8 8 8 9 10 11 12 12 13 13 14 14 14 13 13 14 14 14 14 15 17 18 17 17 17 17 16 16 16 16 17 17 18 19 19 19 19 20 20 21 21 21 20 20 19 19 19 19 20 23 25 26 28
11 11 10 11 11 9 8 7 6 7 7 8 10 11 11 10 11 12 12 13 14 14 14 11 9 8 8 7 7 6 5 5 5 6 7 7 9 10 12 12 13 13 14 14 14 13 12 12 12 13 12 13 14 16 16 16 17 17 17 17 16 16 16 17 18 18 19 19 20 20 19 20 20 20 20 20 19 18 18 19 20 22 24 26 28 28
11 11 10 10 10 10 9 7 6 6 6 6 7 8 9 10 11 12 13 13 13 12 10 9 8 8 8 8 7 6 4 4 5 6 6 7 9 11 12 13 13 14 14 15 15 14 13 12 12 13 12 12 13 14 15 15 15 16 17 17 16 16 17 17 18 18 19 19 20 20 20 19 19 19 19 19 18 17 18 19 21 23 25 27 29 29
15 14 13 13 13 12 8 5 5 5 4 5 5 2 3 6 9 11 11 10 8 7 6 6 6 8 9 9 8 6 4 4 5 5 6 6 8 10 11 12 13 13 14 15 15 15 14 14 14 14 13 13 13 14 14 14 14 15 16 16 16 17 17 18 18 18 18 19 20 20 20 20 19 18 18 18 17 16 16 17 20 23 26 28 29 30
17 16 15 15 15 12 7 6 5 6 3 3 5 6 4 2 1 2 2 2 2 3 6 7 8 9 10 10 10 9 7 5 5 5 5 6 7 9 11 11 12 13 14 15 16 16 16 15 15 15 15 14 14 15 15 14 14 14 15 16 16 17 17 18 18 18 18 19 19 20 21 21 20 19 18 18 18 17 15 14 16 20 24 27 29 29
Wind_Direction
293 296 299 300 293 285 282 283 284 290 301 301 296 297 296 302 310 315 334 332 330 357 6 351 333 325 322 327 319 301 302 303 278 271 263 263 263 235 208 194 189 185 190 196 200 220 225 202 198 196 186 182 189 198 202 204 204 197 193 193 196 205 210 211 213 211 212 213 217 221 219 217 214 213 215 217 221 225 225 222 217 215 215 216 216 215
299 313 314 306 298 291 279 269 267 270 279 283 278 284 287 282 284 291 305 319 325 340 347 333 316 311 312 322 322 303 301 304 284 269 266 252 244 234 214 204 196 186 188 193 192 201 205 194 191 189 187 191 196 198 200 203 206 204 199 197 200 206 211 215 216 215 214 214 217 220 224 224 219 217 219 220 221 223 226 225 220 217 215 216 217 218
312 342 315 301 305 306 292 270 255 257 267 272 273 279 283 278 279 280 275 296 321 336 340 323 306 296 295 308 322 305 302 308 296 274 269 263 246 220 212 212 209 192 188 192 193 194 195 195 195 195 201 208 204 200 200 202 208 211 205 202 205 209 213 214 216 219 218 215 217 217 219 227 227 224 222 222 220 219 222 224 223 220 217 217 218 219
4 358 313 279 284 310 311 280 251 251 259 263 266 269 273 278 284 273 260 280 309 324 328 317 299 275 261 264 315 307 297 299 301 283 267 264 256 235 216 213 215 209 194 188 190 193 195 199 205 208 211 211 205 201 200 203 211 214 210 207 210 214 217 217 217 219 221 221 222 222 221 223 228 229 225 222 221 219 218 221 223 221 219 218 218 219
326 339 322 273 262 270 284 285 255 252 255 255 256 262 273 278 278 274 273 284 300 306 298 279 260 228 206 208 294 319 294 292 297 292 272 263 260 249 232 217 215 218 212 199 192 192 195 199 207 212 212 208 204 203 206 210 215 216 215 213 212 216 220 221 221 220 222 224 226 228 228 225 223 222 221 219 221 222 221 220 222 222 221 220 220 220
300 309 295 275 267 267 274 269 247 244 247 251 250 257 274 277 274 278 279 286 294 287 258 238 246 216 202 214 257 294 290 290 291 294 287 263 253 249 240 226 219 219 219 215 205 196 194 196 201 208 210 210 210 212 218 220 220 219 218 215 214 216 219 223 224 224 224 224 226 231 234 234 229 223 219 218 220 224 227 224 224 224 223 222 221 222
298 288 269 270 270 271 282 271 256 247 241 255 265 265 276 276 274 276 272 277 282 273 259 261 264 229 221 241 259 261 271 289 291 297 300 284 262 251 243 232 223 220 222 224 219 209 202 198 198 200 204 208 213 219 224 221 218 217 216 214 213 214 217 221 223 223 224 226 227 230 236 239 238 234 227 222 221 224 229 227 225 226 225 223 222 223
297 296 280 270 264 263 282 293 282 250 233 258 296 294 289 278 273 270 265 268 272 277 281 275 260 246 238 242 253 257 256 274 291 299 304 302 291 273 256 240 228 222 223 228 231 227 217 209 204 202 204 209 215 219 220 219 218 218 216 214 213 215 217 218 219 218 218 221 227 231 236 240 241 241 237 230 227 227 229 227 225 225 225 224 224 225
293 294 286 274 262 254 262 285 290 254 238 255 285 286 293 289 280 271 265 270 276 282 279 252 230 241 240 228 247 260 259 262 295 319 322 319 307 296 283 258 239 228 224 228 236 238 232 222 214 211 210 212 216 218 217 218 219 219 219 218 217 219 224 225 225 224 219 217 223 229 234 238 239 241 241 239 236 233 232 230 226 223 223 225 226 226
290 287 284 277 264 254 247 255 272 262 249 247 249 258 277 292 293 283 278 280 281 277 259 226 207 229 263 259 255 262 272 277 309 337 336 329 314 307 300 277 252 238 229 226 233 239 239 231 223 220 217 214 214 217 217 218 220 221 222 222 222 223 230 234 231 229 228 223 223 226 230 234 235 235 239 242 241 239 238 235 229 223 222 224 227 228
293 286 278 268 260 253 233 234 258 257 244 239 245 261 278 283 282 282 282 277 276 268 245 218 206 222 256 325 308 299 302 309 328 340 340 335 319 310 297 270 242 232 228 226 228 231 235 233 227 226 225 220 217 217 219 219 219 221 222 224 225 225 230 237 234 228 227 227 226 225 226 230 231 232 236 241 244 243 240 237 231 226 223 223 226 227
307 282 262 249 248 245 223 228 245 254 254 246 253 269 278 279 274 280 278 242 213 243 181 93 165 218 211 6 333 326 327 334 339 345 358 357 285 283 271 255 229 213 212 220 224 224 227 229 226 226 227 225 220 219 221 222 221 220 221 222 225 228 230 233 236 234 229 228 227 224 225 227 229 233 235 239 243 244 242 237 231 226 223 221 223 226
325 266 249 234 231 227 221 229 229 243 261 255 259 266 263 324 13 306 284 202 230 228 164 78 181 201 152 319 318 315 315 336 339 340 10 334 235 185 232 251 237 218 208 211 223 227 227 226 226 226 226 226 223 221 221 222 223 222 221 221 225 232 234 232 235 237 233 231 229 224 224 229 232 235 238 240 241 239 237 235 232 229 223 219 222 227
346 273 238 220 227 231 232 236 230 231 246 248 247 237 205 98 62 288 276 310 277 239 153 231 210 153 152 283 310 307 302 323 311 288 320 317 48 102 162 245 254 233 216 205 217 230 233 232 230 230 229 228 226 224 223 222 224 224 224 224 226 233 238 237 240 242 239 237 237 229 223 228 233 238 242 244 246 245 238 232 228 226 224 224 227 230
330 275 261 246 239 241 241 237 231 232 240 242 218 196 196 157 133 241 240 228 256 272 7 256 200 157 162 283 312 303 296 297 252 247 220 202 4 60 90 162 227 232 223 209 208 221 231 238 240 237 234 233 231 230 230 228 227 228 229 229 229 236 242 243 245 248 249 249 248 242 233 232 234 238 241 242 247 251 251 247 238 226 220 221 227 231
302 275 292 283 260 263 262 245 232 236 242 240 214 189 169 175 177 230 199 168 113 37 9 22 82 171 167 330 332 320 293 245 178 149 126 139 4 26 67 95 114 179 215 216 210 212 221 229 235 236 234 234 237 239 240 239 235 235 240 238 235 239 246 249 248 248 253 255 251 245 240 241 242 243 245 245 245 248 254 259 255 245 234 224 223 228
285 279 296 291 282 280 274 261 251 246 236 224 224 217 161 180 222 211 130 97 65 69 30 37 72 180 195 308 316 14 44 105 137 134 120 121 105 21 32 54 71 90 153 207 212 211 216 218 220 226 232 235 239 242 244 249 250 250 252 248 245 248 251 255 255 250 251 250 243 241 242 246 248 248 249 251 250 249 250 253 251 251 249 237 226 226
290 294 295 292 283 271 263 254 249 250 240 232 236 231 220 258 254 214 165 69 61 64 330 209 195 201 216 266 258 234 29 62 86 97 90 95 106 76 31 26 32 49 70 130 186 197 205 208 210 217 226 232 238 242 245 251 255 254 254 249 251 261 256 251 253 250 248 244 240 243 248 252 253 251 251 252 252 249 247 247 244 244 245 239 230 226
304 305 303 304 288 268 268 255 243 246 244 241 244 239 241 259 237 192 195 38 104 173 303 210 203 218 224 235 223 209 211 46 47 53 54 53 64 59 19 15 9 4 35 81 130 152 162 174 186 195 202 206 207 220 233 239 239 238 244 242 245 265 248 237 248 251 249 248 248 252 255 254 254 253 252 252 251 246 244 245 242 240 242 241 235 228
313 305 293 310 307 289 287 270 240 232 229 232 236 236 240 251 246 203 210 209 138 161 216 172 240 246 215 189 170 194 214 346 7 34 34 29 36 29 357 345 323 260 271 231 177 180 170 164 166 169 175 182 183 191 205 214 220 226 235 237 235 241 238 235 250 258 256 255 257 260 259 253 251 250 250 251 249 244 244 247 242 235 236 240 239 233
317 297 280 303 316 307 302 293 231 214 202 195 202 203 209 229 244 221 221 225 162 147 166 153 271 236 195 180 189 226 273 301 294 324 352 358 7 5 357 355 321 234 226 233 232 229 219 203 191 180 178 185 190 197 201 199 206 219 231 236 236 237 239 239 243 250 254 256 258 262 262 254 249 247 247 249 249 246 244 244 240 235 233 235 237 237
320 295 291 307 329 345 329 3 145 174 165 150 164 176 194 220 234 188 220 234 202 188 179 162 199 213 195 195 203 210 259 284 285 297 319 336 346 348 351 356 354 339 216 222 234 238 237 231 226 221 215 211 207 210 212 207 204 209 220 235 239 237 239 241 240 240 244 249 253 257 259 256 248 243 242 244 246 245 243 241 238 236 235 235 238 240
326 305 305 319 12 33 2 143 136 121 105 91 93 133 183 223 233 200 220 242 205 207 199 173 197 201 194 199 197 205 246 266 279 297 316 337 351 351 347 348 349 348 339 269 239 235 242 245 242 240 237 234 228 224 225 223 219 216 217 226 237 238 239 241 239 237 238 242 247 250 252 251 245 239 235 236 238 237 235 236 236 236 237 238 240 242
332 317 319 5 129 64 55 150 178 139 102 55 28 120 178 217 229 218 240 255 224 207 190 158 187 198 193 201 205 215 240 256 278 304 330 354 359 351 341 338 338 337 336 331 311 271 254 248 248 250 247 244 240 234 232 234 236 232 226 223 228 234 237 239 237 236 236 238 240 242 245 245 242 238 233 231 233 234 233 232 234 236 238 240 242 242
343 325 314 93 103 13 35 358 296 247 258 286 282 261 224 220 227 228 245 253 242 215 201 182 180 195 200 210 212 218 236 252 281 314 338 345 344 339 330 325 325 326 327 326 322 313 299 274 258 253 251 252 251 246 241 239 240 241 237 231 230 233 237 240 239 238 238 238 238 239 240 240 240 239 237 234 236 240 241 239 238 239 240 242 244 243
18 8 326 152 97 88 220 330 358 329 276 274 269 267 254 240 238 236 238 243 242 228 216 202 172 186 202 210 211 218 232 249 285 320 329 326 323 321 317 314 315 318 319 319 319 317 314 307 296 279 264 259 255 253 251 247 245 244 243 239 237 237 239 241 243 242 241 241 241 241 240 239 239 239 238 237 240 244 246 246 245 245 245 247 249 248
52 60 64 72 85 93 87 62 47 35 21 360 319 288 260 245 242 238 232 235 250 256 243 235 222 209 209 206 207 219 233 257 296 312 313 309 306 308 308 305 304 308 313 316 316 317 318 316 314 310 298 283 271 263 257 254 252 250 248 247 245 244 244 244 245 245 243 243 243 243 243 242 242 242 242 240 241 244 247 249 250 251 251 252 253 254
63 72 75 74 70 70 66 57 48 37 31 30 28 25 329 242 237 236 234 239 257 268 264 263 257 234 214 204 204 221 248 277 299 305 302 298 296 299 301 298 296 297 302 307 309 310 313 313 313 313 309 300 292 284 273 265 261 257 254 252 251 251 251 250 249 248 246 245 244 243 244 245 246 247 248 247 246 247 249 251 253 254 255 256 256 256
53 68 77 73 54 45 43 40 32 23 17 13 12 17 19 339 225 231 235 242 253 259 271 282 266 208 187 197 214 248 267 284 296 297 297 295 293 294 295 295 294 290 289 291 295 300 303 307 311 312 310 306 301 295 289 282 276 269 262 258 255 255 255 255 254 252 250 248 246 245 245 245 246 248 250 252 252 252 253 255 256 257 258 259 260 260
34 30 38 37 17 8 1 359 357 353 353 352 347 347 355 12 96 219 231 236 241 248 262 276 257 200 188 211 245 266 276 286 290 288 287 287 287 289 292 295 297 295 291 289 289 293 297 301 306 308 309 309 308 303 298 291 286 279 272 266 261 258 257 257 258 258 256 253 250 248 246 246 246 246 247 250 251 252 254 256 258 258 259 260 261 262
19 18 21 19 16 8 355 348 348 344 341 347 345 328 328 5 56 162 222 225 228 236 245 250 243 227 223 242 266 276 279 280 282 282 284 286 290 293 293 295 297 297 297 297 296 295 296 298 300 303 308 311 312 310 306 301 294 287 280 272 265 261 258 257 256 257 258 257 255 252 249 248 248 247 247 247 248 249 251 253 255 257 258 259 259 260
20 22 17 12 14 8 356 349 352 347 343 2 22 13 360 26 46 83 195 213 219 228 233 231 228 227 235 253 263 267 271 276 280 284 289 293 295 295 295 297 300 301 300 299 299 298 296 296 296 301 309 314 315 317 315 313 308 299 290 279 270 265 261 259 256 255 255 255 255 254 251 250 250 250 250 250 249 248 248 249 250 252 254 255 256 258
26 13 6 2 355 352 351 345 346 350 353 11 18 18 24 32 38 47 50 216 212 216 224 228 224 216 222 239 253 264 272 281 287 291 294 297 298 298 304 307 305 304 304 302 301 300 298 298 300 306 314 318 320 321 322 323 321 315 308 298 286 277 270 266 263 259 256 255 254 253 251 250 250 250 251 252 252 251 250 249 249 250 251 251 253 255
359 350 355 351 342 342 344 339 339 349 9 353 344 345 355 6 22 33 14 335 274 233 218 214 211 209 215 243 287 300 301 298 300 304 302 301 306 313 320 321 318 319 321 318 314 313 312 314 315 316 320 322 323 324 325 328 328 325 325 324 317 306 292 281 274 269 265 261 257 254 252 250 249 249 250 252 254 254 254 253 252 251 251 251 252 253
256 313 329 335 333 331 336 346 354 344 328 331 324 314 323 342 3 9 350 333 314 284 240 214 215 227 265 320 336 336 329 315 307 311 311 309 316 322 325 330 332 332 332 329 327 326 327 327 325 323 323 323 322 324 325 326 326 326 329 334 334 330 319 305 292 283 276 270 265 261 257 254 252 250 249 250 251 253 255 256 255 255 255 254 254 254
246 288 303 316 321 320 328 349 348 317 321 323 310 298 307 325 344 347 337 330 319 297 267 248 252 268 294 315 330 335 333 324 312 311 313 314 319 324 327 331 332 329 328 328 327 327 327 327 324 321 321 322 322 324 326 325 324 325 328 333 336 336 333 327 316 304 293 285 278 271 266 261 258 256 254 252 251 252 253 255 256 256 256 257 257 257
242 265 281 297 305 300 302 308 313 319 330 337 322 306 299 305 325 333 333 334 326 306 284 266 265 276 294 308 319 327 329 324 313 308 311 316 321 324 326 327 325 323 323 322 322 321 321 321 320 317 317 320 322 326 328 327 325 327 330 333 335 334 335 335 332 324 314 304 294 286 278 272 266 262 259 257 255 254 253 254 255 255 256 257 258 258
237 255 269 279 282 280 288 304 318 323 328 336 332 306 261 284 306 315 324 339 338 308 286 274 271 278 293 305 313 320 322 319 311 308 313 318 321 321 321 320 317 314 314 315 315 315 315 314 314 313 313 313 317 323 326 326 326 329 331 332 333 332 332 332 331 328 323 316 308 300 292 284 277 270 265 261 259 258 256 256 256 256 256 256 257 258
238 252 261 266 270 274 275 280 288 280 286 312 323 305 278 293 306 308 315 333 344 321 279 271 279 284 296 305 310 313 314 313 315 316 317 317 316 313 310 308 306 305 307 310 310 310 309 308 307 307 308 308 310 313 316 317 320 323 325 326 327 326 325 324 322 319 315 312 309 305 300 294 288 281 275 268 264 261 259 258 258 258 257 257 258 259
238 248 256 260 264 269 270 268 268 272 285 302 303 290 280 290 309 312 308 324 335 326 265 253 292 291 299 306 307 307 306 309 318 319 314 311 308 303 301 301 303 304 305 306 307 307 306 304 302 301 300 300 302 304 306 310 313 316 318 320 321 320 319 317 314 310 307 304 303 301 300 297 293 289 284 278 272 266 262 259 258 257 257 258 258 260
236 246 254 258 264 270 268 265 271 283 297 301 287 271 278 284 283 295 313 330 338 335 318 334 308 291 297 302 303 306 306 308 314 313 307 305 304 302 301 302 302 303 304 306 308 309 309 309 307 302 297 294 295 298 301 305 308 311 314 317 318 318 316 314 311 306 302 299 299 300 300 298 295 292 288 285 280 274 268 262 258 256 255 256 258 259
232 242 250 253 259 265 261 261 278 295 305 308 279 263 277 276 262 293 326 337 338 333 331 330 303 290 297 301 303 306 306 307 311 313 311 309 306 303 301 301 302 306 311 315 316 317 317 318 316 310 301 296 295 297 300 304 308 311 314 317 319 318 315 314 311 307 303 301 302 304 305 303 301 298 294 289 286 282 275 266 260 256 254 254 255 257
237 239 245 248 250 254 255 260 280 303 313 320 304 278 279 278 272 305 330 338 340 337 330 308 291 293 296 299 302 301 301 303 307 310 311 310 307 306 306 308 313 318 323 326 326 327 328 329 327 322 313 305 302 303 306 310 313 316 319 324 325 322 320 319 316 313 311 309 310 313 314 312 310 307 303 297 292 289 284 274 263 256 253 252 252 254
247 246 249 251 248 249 253 257 273 297 309 317 312 297 301 306 300 310 327 340 349 352 345 321 298 291 292 296 298 297 298 300 303 306 308 309 310 312 314 319 324 329 332 333 333 333 334 335 335 334 329 323 319 317 318 320 322 324 328 333 332 327 325 325 324 322 320 318 319 321 322 320 318 315 312 306 299 295 293 285 270 257 252 251 251 253
249 246 251 256 255 260 271 276 281 292 301 305 302 303 312 317 314 314 326 340 347 349 351 347 329 313 311 308 303 303 307 309 309 310 310 312 315 318 322 326 330 333 334 334 333 332 332 332 334 336 335 332 329 327 326 328 330 331 334 338 338 335 333 332 333 333 331 330 329 329 328 327 325 321 318 312 304 297 294 290 277 260 252 250 250 253
253 250 256 263 268 274 279 281 286 293 295 292 290 296 306 313 315 316 321 331 336 339 345 351 349 349 352 345 331 323 321 318 316 315 316 319 323 326 330 332 333 333 334 334 331 328 326 325 327 331 332 330 329 327 327 329 331 333 336 340 341 340 338 338 340 341 340 340 338 336 336 335 333 329 324 316 307 297 291 285 275 261 253 251 252 256
255 256 259 262 267 271 273 280 294 301 300 292 287 290 297 301 305 309 313 319 325 330 337 345 350 356 3 3 356 343 330 319 315 316 323 330 334 337 338 337 335 335 336 335 332 327 323 319 319 323 326 325 324 323 324 328 330 331 334 337 340 340 339 339 342 344 344 343 342 340 339 338 338 337 332 321 309 298 288 280 271 262 255 254 258 264
257 257 257 259 261 263 269 281 293 302 307 297 285 284 289 291 292 297 302 308 314 321 331 342 348 352 0 9 10 3 348 335 330 333 340 345 347 347 344 340 339 340 339 337 335 330 324 318 315 317 322 322 318 317 321 327 329 328 330 333 337 339 340 341 343 345 344 344 344 343 341 339 339 341 338 328 315 302 291 280 272 266 262 263 266 271
255 257 259 261 264 267 272 277 284 299 319 320 295 276 272 276 281 287 292 300 309 319 330 339 345 350 358 5 9 12 15 13 6 1 358 354 350 345 340 338 341 342 340 338 337 333 327 321 317 317 320 320 316 315 319 324 326 325 326 328 333 338 341 342 343 344 344 344 344 344 344 342 340 342 343 337 325 310 298 287 279 273 270 271 274 277
256 260 262 263 265 270 271 263 269 291 333 18 18 342 252 254 268 277 286 298 310 328 346 356 2 8 10 9 10 14 16 16 14 8 359 349 340 333 331 334 339 340 338 336 336 334 329 323 318 317 319 320 316 314 317 321 322 321 321 324 330 336 339 341 341 342 344 345 344 343 345 345 344 343 343 343 337 323 308 295 287 280 276 276 279 282
263 265 263 261 261 260 245 224 242 270 292 5 19 29 53 74 281 281 295 318 5 36 36 33 32 29 25 21 16 10 1 356 358 358 350 339 328 322 324 329 335 337 336 334 333 332 329 323 318 316 317 318 316 314 316 318 318 317 318 321 327 333 336 337 337 338 342 344 344 344 345 346 347 346 344 343 342 336 325 309 295 288 284 281 280 281
Height
3104 3104 3104 3104 3104 3104 3104 3105 3105 3105 3105 3106 3106 3106 3106 3107 3107 3107 3108 3107 3107 3108 3107 3107 3108 3108 3107 3107 3107 3107 3106 3107 3108 3108 3109 3110 3110 3111 3111 3112 3113 3113 3115 3116 3117 3119 3121 3123 3125 3128 3129 3130 3133 3135 3136 3137 3138 3140 3141 3142 3144 3147 3148 3150 3152 3153 3155 3156 3158 3159 3161 3163 3166 3168 3171 3173 3176 3179 3182 3184 3185 3186 3188 3189 3190 3191
3103 3103 3103 3103 3103 3103 3103 3104 3104 3104 3105 3105 3105 3105 3106 3106 3106 3107 3107 3107 3107 3107 3107 3107 3108 3108 3107 3106 3106 3106 3105 3106 3107 3108 3109 3109 3110 3110 3111 3112 3112 3112 3113 3114 3116 3117 3120 3122 3124 3126 3128 3129 3132 3134 3135 3136 3138 3139 3140 3142 3144 3146 3147 3149 3151 3153 3154 3156 3158 3159 3161 3163 3165 3167 3169 3172 3175 3178 3180 3182 3184 3185 3186 3188 3189 3190
3103 3103 3103 3102 3102 3102 3102 3102 3103 3103 3104 3104 3104 3105 3105 3105 3105 3106 3106 3106 3106 3107 3106 3106 3107 3107 3107 3106 3106 3105 3105 3105 3106 3107 3108 3108 3109 3109 3110 3111 3112 3112 3112 3113 3114 3116 3118 3121 3124 3125 3127 3129 3131 3133 3134 3135 3137 3139 3140 3141 3143 3145 3146 3148 3150 3152 3154 3156 3157 3159 3160 3162 3164 3166 3168 3170 3172 3174 3176 3179 3182 3184 3185 3187 3188 3189
3103 3103 3102 3102 3102 3102 3102 3102 3102 3102 3103 3103 3103 3104 3104 3104 3105 3105 3105 3106 3106 3106 3106 3106 3106 3106 3107 3106 3106 3105 3104 3104 3105 3106 3107 3107 3108 3109 3110 3111 3111 3112 3112 3112 3113 3115 3117 3120 3123 3125 3127 3128 3130 3131 3132 3134 3136 3138 3139 3141 3143 3144 3145 3147 3149 3150 3152 3154 3156 3157 3159 3161 3162 3164 3166 3167 3169 3171 3173 3176 3179 3182 3184 3185 3186 3187
3102 3102 3102 3102 3102 3102 3101 3101 3101 3102 3102 3102 3102 3103 3103 3104 3104 3104 3104 3105 3105 3105 3105 3105 3105 3105 3106 3106 3106 3105 3104 3104 3103 3104 3106 3106 3107 3108 3109 3110 3111 3111 3111 3112 3113 3114 3115 3118 3121 3124 3125 3127 3128 3130 3131 3133 3135 3137 3138 3140 3141 3142 3144 3146 3147 3149 3150 3152 3154 3156 3157 3158 3160 3161 3162 3163 3166 3169 3171 3174 3177 3180 3182 3183 3184 3185
3102 3102 3101 3101 3101 3101 3101 3101 3101 3101 3101 3102 3102 3102 3103 3103 3103 3103 3103 3104 3104 3104 3104 3105 3104 3104 3104 3105 3105 3105 3104 3104 3102 3102 3104 3105 3105 3106 3107 3109 3110 3110 3110 3111 3112 3113 3114 3115 3118 3120 3123 3125 3126 3128 3130 3131 3133 3134 3136 3137 3139 3140 3142 3143 3145 3146 3147 3149 3152 3153 3155 3156 3158 3159 3160 3162 3165 3168 3171 3173 3176 3178 3179 3181 3182 3183
3101 3101 3101 3101 3101 3101 3100 3100 3100 3100 3100 3101 3101 3101 3102 3102 3102 3102 3102 3103 3103 3103 3103 3104 3104 3103 3103 3103 3104 3104 3104 3103 3102 3101 3102 3103 3103 3104 3105 3107 3108 3109 3109 3109 3111 3112 3113 3114 3116 3118 3120 3122 3124 3125 3127 3128 3130 3131 3132 3134 3135 3136 3138 3139 3140 3142 3144 3147 3149 3151 3153 3154 3156 3158 3159 3162 3165 3167 3169 3171 3172 3174 3177 3179 3180 3181
3100 3100 3100 3100 3100 3100 3100 3100 3100 3100 3100 3100 3100 3100 3101 3101 3101 3101 3101 3102 3102 3102 3102 3102 3102 3102 3101 3102 3102 3103 3103 3103 3102 3100 3100 3100 3101 3101 3102 3104 3105 3107 3108 3108 3109 3110 3112 3113 3114 3116 3117 3119 3121 3123 3124 3126 3127 3129 3130 3131 3132 3133 3133 3131 3131 3133 3137 3142 3146 3148 3150 3152 3154 3156 3158 3160 3162 3164 3165 3167 3169 3171 3174 3176 3178 3179
3099 3099 3099 3099 3099 3099 3099 3099 3099 3099 3099 3099 3099 3099 3100 3100 3100 3100 3100 3101 3101 3101 3101 3101 3101 3101 3100 3101 3101 3101 3101 3102 3101 3100 3099 3098 3098 3099 3099 3100 3102 3104 3105 3107 3107 3108 3110 3111 3112 3113 3115 3117 3118 3120 3122 3124 3125 3126 3127 3128 3129 3130 3127 3124 3126 3131 3135 3138 3142 3145 3147 3149 3151 3153 3155 3157 3159 3161 3162 3163 3166 3168 3170 3173 3175 3177
3098 3097 3097 3097 3097 3097 3098 3098 3098 3098 3099 3099 3099 3099 3099 3099 3099 3100 3100 3100 3100 3100 3100 3100 3100 3100 3099 3099 3099 3100 3100 3100 3100 3099 3098 3097 3097 3096 3097 3098 3099 3101 3103 3104 3105 3106 3107 3108 3110 3111 3112 3114 3115 3117 3119 3120 3122 3123 3124 3126 3126 3127 3124 3122 3127 3132 3134 3136 3139 3141 3143 3146 3148 3150 3152 3154 3156 3157 3158 3160 3163 3165 3167 3170 3173 3175
3097 3096 3096 3096 3096 3096 3097 3097 3097 3098 3098 3098 3098 3098 3099 3099 3099 3099 3099 3099 3099 3099 3099 3098 3099 3098 3098 3098 3098 3098 3099 3099 3099 3099 3098 3097 3096 3095 3095 3095 3097 3099 3100 3101 3102 3103 3105 3106 3107 3108 3110 3111 3112 3114 3115 3117 3118 3120 3121 3123 3123 3124 3123 3123 3126 3129 3130 3133 3136 3138 3140 3142 3145 3147 3149 3150 3152 3154 3155 3157 3159 3162 3164 3167 3169 3172
3095 3095 3094 3095 3095 3095 3096 3096 3097 3097 3097 3097 3097 3098 3098 3098 3098 3098 3098 3098 3099 3099 3098 3097 3098 3097 3098 3098 3098 3098 3099 3099 3098 3098 3098 3097 3096 3094 3093 3093 3095 3096 3097 3098 3099 3100 3102 3103 3105 3106 3107 3109 3110 3111 3113 3114 3115 3116 3117 3119 3120 3120 3121 3122 3123 3124 3126 3129 3132 3135 3137 3139 3141 3143 3145 3146 3148 3150 3152 3154 3156 3158 3161 3163 3166 3169
3095 3094 3094 3094 3094 3094 3095 3096 3096 3096 3096 3097 3097 3097 3097 3098 3098 3098 3098 3098 3098 3098 3097 3097 3097 3097 3097 3098 3098 3098 3098 3098 3098 3098 3098 3097 3096 3094 3093 3092 3094 3095 3095 3096 3097 3097 3099 3100 3102 3104 3105 3106 3107 3108 3110 3111 3113 3113 3114 3116 3116 3117 3120 3121 3120 3120 3123 3126 3127 3130 3134 3137 3139 3141 3142 3143 3143 3144 3146 3148 3152 3155 3157 3160 3162 3165
3094 3094 3094 3094 3094 3094 3094 3095 3095 3095 3096 3096 3096 3096 3096 3098 3100 3101 3100 3100 3098 3096 3097 3097 3096 3097 3097 3098 3097 3097 3097 3097 3097 3097 3097 3097 3096 3094 3093 3092 3093 3094 3094 3095 3095 3096 3097 3098 3100 3102 3103 3104 3105 3106 3107 3109 3111 3112 3112 3112 3113 3114 3117 3118 3117 3117 3121 3124 3124 3125 3129 3133 3135 3137 3140 3142 3142 3143 3142 3143 3146 3150 3154 3157 3159 3161
3094 3094 3093 3093 3093 3093 3094 3094 3094 3095 3095 3095 3095 3096 3096 3096 3098 3099 3099 3098 3097 3096 3096 3096 3096 3097 3098 3098 3097 3096 3096 3096 3097 3096 3096 3097 3097 3095 3093 3092 3092 3092 3093 3094 3094 3095 3096 3097 3099 3100 3102 3103 3104 3105 3106 3107 3108 3109 3110 3110 3112 3114 3114 3115 3116 3118 3122 3124 3126 3127 3128 3129 3131 3133 3135 3138 3141 3143 3144 3143 3143 3144 3147 3150 3154 3157
3093 3093 3092 3093 3093 3093 3093 3093 3093 3094 3094 3094 3095 3095 3096 3096 3096 3097 3097 3097 3096 3097 3097 3097 3097 3098 3098 3098 3097 3096 3095 3095 3096 3096 3095 3095 3097 3095 3093 3092 3091 3091 3092 3093 3093 3094 3095 3096 3097 3099 3101 3102 3103 3104 3105 3106 3106 3107 3108 3109 3111 3113 3114 3114 3116 3118 3120 3123 3125 3128 3128 3129 3130 3131 3133 3135 3137 3140 3143 3145 3145 3145 3144 3145 3148 3152
3093 3092 3092 3092 3092 3092 3092 3092 3092 3093 3093 3094 3094 3095 3095 3095 3096 3096 3096 3097 3097 3097 3099 3099 3098 3098 3098 3098 3097 3097 3096 3095 3095 3096 3095 3095 3096 3096 3094 3092 3091 3091 3091 3092 3092 3093 3094 3095 3097 3098 3100 3101 3102 3103 3104 3105 3106 3107 3108 3108 3110 3111 3113 3116 3117 3117 3118 3120 3122 3124 3126 3127 3128 3130 3132 3133 3134 3136 3139 3142 3145 3147 3147 3145 3146 3147
3092 3092 3091 3091 3091 3091 3091 3091 3091 3092 3092 3093 3094 3094 3095 3095 3095 3095 3096 3097 3098 3099 3100 3099 3098 3098 3098 3097 3097 3097 3096 3095 3095 3096 3096 3096 3097 3096 3095 3094 3093 3092 3091 3092 3092 3093 3094 3095 3096 3098 3099 3100 3101 3102 3103 3105 3106 3107 3108 3109 3109 3110 3113 3115 3116 3117 3117 3117 3119 3121 3123 3124 3125 3127 3129 3130 3132 3134 3135 3137 3140 3144 3145 3145 3146 3146
3092 3091 3090 3090 3090 3089 3090 3090 3090 3091 3091 3092 3093 3094 3094 3094 3095 3095 3096 3096 3097 3100 3100 3099 3098 3097 3097 3096 3096 3096 3096 3096 3096 3096 3096 3096 3096 3096 3096 3095 3095 3094 3093 3093 3093 3093 3094 3095 3096 3097 3099 3100 3101 3102 3102 3103 3105 3107 3108 3107 3108 3110 3113 3114 3114 3115 3115 3115 3117 3118 3120 3121 3122 3123 3126 3128 3129 3131 3132 3134 3137 3139 3141 3143 3145 3145
3091 3091 3089 3089 3089 3088 3088 3088 3089 3089 3090 3091 3092 3093 3093 3094 3094 3094 3095 3094 3096 3099 3100 3099 3098 3097 3096 3096 3096 3095 3095 3095 3096 3096 3096 3096 3096 3096 3096 3096 3096 3095 3095 3094 3094 3095 3095 3095 3095 3096 3097 3099 3100 3101 3101 3102 3103 3105 3106 3107 3108 3110 3112 3113 3112 3112 3113 3113 3115 3116 3116 3117 3118 3120 3122 3124 3126 3127 3129 3132 3134 3135 3138 3140 3141 3142
3091 3091 3089 3088 3088 3088 3087 3087 3087 3088 3089 3090 3091 3092 3093 3093 3093 3094 3094 3094 3094 3096 3098 3098 3098 3096 3095 3096 3095 3095 3095 3095 3095 3096 3096 3096 3096 3096 3096 3096 3096 3096 3095 3095 3095 3096 3096 3095 3095 3095 3096 3097 3098 3099 3100 3101 3102 3103 3104 3106 3108 3109 3110 3111 3111 3110 3111 3112 3113 3114 3114 3114 3114 3116 3118 3121 3123 3124 3127 3129 3130 3132 3134 3136 3137 3139
3090 3090 3089 3088 3087 3087 3087 3088 3087 3088 3088 3089 3090 3091 3092 3092 3092 3093 3093 3093 3094 3094 3095 3096 3096 3095 3095 3096 3096 3095 3095 3095 3095 3096 3096 3095 3095 3095 3095 3095 3095 3095 3095 3095 3096 3096 3096 3096 3095 3095 3096 3096 3097 3098 3099 3099 3100 3101 3102 3104 3106 3107 3107 3108 3108 3108 3109 3110 3111 3112 3112 3112 3112 3113 3115 3117 3119 3121 3123 3125 3127 3129 3130 3132 3134 3136
3090 3089 3089 3088 3088 3088 3088 3088 3088 3088 3088 3089 3090 3090 3091 3092 3092 3092 3092 3092 3093 3094 3094 3095 3094 3094 3094 3095 3095 3095 3095 3095 3095 3095 3096 3095 3095 3095 3095 3095 3095 3095 3095 3095 3095 3096 3096 3095 3095 3095 3095 3096 3096 3096 3097 3098 3099 3099 3100 3101 3103 3103 3104 3104 3105 3105 3106 3107 3109 3109 3110 3110 3110 3111 3113 3115 3117 3118 3120 3121 3124 3125 3127 3129 3131 3131
3090 3089 3088 3088 3088 3088 3088 3088 3088 3088 3088 3089 3090 3090 3091 3091 3091 3091 3091 3091 3092 3093 3093 3094 3094 3094 3094 3094 3095 3095 3094 3095 3095 3095 3095 3095 3095 3095 3095 3094 3094 3094 3094 3094 3094 3094 3094 3094 3094 3094 3094 3095 3095 3095 3096 3096 3097 3097 3097 3098 3100 3101 3101 3101 3102 3102 3104 3105 3106 3107 3107 3108 3108 3109 3111 3112 3114 3115 3116 3118 3120 3121 3123 3125 3126 3126
3090 3089 3088 3088 3088 3088 3088 3088 3088 3088 3088 3089 3089 3090 3091 3091 3090 3090 3090 3090 3090 3091 3091 3092 3092 3092 3092 3093 3094 3094 3094 3095 3095 3095 3095 3095 3095 3095 3095 3094 3094 3093 3092 3092 3092 3092 3092 3093 3093 3093 3093 3093 3093 3094 3094 3094 3095 3095 3095 3096 3097 3098 3098 3098 3098 3099 3100 3102 3102 3103 3104 3105 3106 3107 3108 3109 3110 3111 3113 3115 3116 3117 3119 3120 3120 3121
3090 3089 3089 3089 3089 3089 3089 3089 3089 3088 3088 3088 3089 3089 3090 3090 3090 3090 3089 3089 3089 3089 3090 3090 3091 3091 3091 3092 3093 3093 3094 3094 3094 3095 3095 3094 3094 3094 3094 3093 3093 3092 3092 3091 3090 3090 3090 3091 3091 3091 3092 3092 3092 3092 3092 3093 3093 3093 3093 3093 3094 3094 3094 3095 3095 3096 3097 3098 3099 3100 3100 3101 3102 3103 3104 3106 3107 3108 3109 3111 3112 3114 3115 3115 3116 3116
3091 3090 3089 3089 3089 3090 3090 3089 3089 3088 3088 3088 3088 3088 3088 3089 3089 3089 3089 3088 3088 3088 3088 3089 3090 3090 3090 3091 3092 3093 3093 3093 3094 3094 3094 3094 3094 3094 3093 3093 3092 3091 3091 3090 3089 3089 3088 3089 3089 3090 3090 3090 3091 3091 3090 3090 3090 3090 3091 3091 3091 3091 3091 3092 3092 3093 3094 3095 3095 3096 3097 3097 3098 3099 3100 3102 3103 3104 3105 3106 3108 3109 3110 3111 3111 3112
3092 3091 3091 3090 3090 3090 3090 3089 3089 3089 3088 3088 3087 3087 3087 3087 3088 3088 3088 3088 3088 3088 3088 3088 3089 3089 3090 3090 3091 3092 3092 3092 3093 3093 3093 3093 3093 3092 3092 3092 3091 3091 3090 3089 3089 3088 3087 3087 3088 3088 3089 3089 3089 3089 3089 3088 3088 3088 3088 3087 3088 3088 3088 3088 3089 3090 3091 3091 3092 3093 3093 3094 3094 3095 3096 3097 3099 3099 3100 3102 3103 3104 3105 3106 3107 3108
3093 3092 3092 3091 3091 3091 3090 3090 3089 3089 3088 3088 3087 3087 3087 3086 3087 3087 3087 3088 3088 3087 3087 3087 3088 3089 3090 3090 3091 3091 3091 3092 3092 3092 3092 3092 3091 3090 3090 3090 3090 3090 3089 3089 3088 3087 3087 3086 3086 3086 3086 3087 3087 3087 3086 3086 3086 3085 3085 3085 3085 3084 3084 3085 3085 3086 3087 3088 3089 3089 3090 3090 3091 3091 3092 3093 3095 3095 3096 3097 3099 3100 3101 3102 3102 3104
3093 3093 3093 3092 3091 3091 3090 3090 3089 3089 3088 3088 3087 3087 3087 3086 3086 3086 3087 3087 3087 3087 3087 3087 3087 3088 3089 3090 3090 3091 3091 3091 3091 3091 3091 3091 3090 3089 3088 3088 3088 3088 3088 3088 3087 3086 3086 3085 3085 3085 3084 3084 3084 3084 3084 3083 3083 3083 3082 3082 3082 3082 3082 3082 3082 3082 3083 3084 3085 3086 3087 3087 3087 3088 3089 3089 3091 3092 3092 3093 3095 3096 3097 3098 3098 3099
3094 3093 3093 3092 3092 3091 3091 3090 3089 3089 3088 3088 3088 3087 3086 3086 3086 3086 3086 3086 3087 3087 3087 3087 3087 3087 3088 3089 3089 3090 3090 3090 3090 3090 3090 3089 3088 3087 3087 3086 3086 3086 3086 3086 3085 3085 3084 3084 3083 3083 3082 3082 3081 3081 3081 3080 3080 3080 3079 3079 3079 3079 3079 3079 3079 3079 3079 3080 3081 3082 3083 3083 3084 3084 3085 3086 3086 3087 3088 3089 3091 3092 3093 3094 3094 3095
3094 3094 3093 3093 3092 3091 3091 3090 3089 3089 3088 3088 3087 3087 3087 3086 3086 3085 3086 3086 3086 3086 3086 3086 3087 3087 3088 3088 3089 3089 3089 3089 3089 3088 3088 3087 3087 3086 3085 3085 3085 3085 3084 3084 3083 3083 3083 3083 3082 3081 3081 3080 3079 3079 3078 3077 3077 3077 3076 3076 3076 3076 3075 3075 3075 3075 3075 3075 3076 3077 3078 3079 3080 3080 3081 3082 3082 3083 3084 3085 3086 3087 3088 3089 3090 3090
3094 3094 3094 3093 3093 3092 3091 3090 3089 3088 3088 3088 3088 3087 3087 3087 3086 3086 3086 3085 3085 3086 3086 3086 3087 3087 3088 3088 3088 3088 3088 3088 3087 3087 3086 3086 3085 3085 3084 3084 3084 3083 3083 3083 3082 3082 3081 3081 3081 3080 3079 3079 3078 3077 3076 3075 3074 3073 3073 3072 3072 3071 3071 3071 3071 3071 3071 3071 3071 3071 3072 3074 3075 3076 3077 3077 3078 3079 3080 3080 3081 3082 3083 3084 3085 3086
3094 3094 3094 3093 3093 3092 3091 3090 3089 3089 3089 3088 3088 3087 3087 3087 3086 3086 3086 3086 3086 3086 3086 3086 3086 3087 3087 3087 3087 3086 3086 3086 3086 3085 3085 3085 3085 3084 3084 3084 3083 3082 3082 3081 3081 3080 3080 3080 3079 3078 3078 3077 3076 3075 3075 3074 3073 3071 3070 3069 3068 3068 3067 3067 3067 3067 3067 3067 3066 3066 3067 3068 3069 3070 3072 3072 3073 3074 3075 3076 3077 3078 3079 3080 3081 3081
3094 3094 3094 3093 3093 3092 3091 3090 3090 3090 3089 3089 3088 3088 3087 3087 3087 3086 3086 3086 3086 3086 3086 3086 3086 3086 3086 3086 3085 3085 3085 3085 3084 3084 3084 3084 3084 3084 3083 3082 3082 3081 3080 3080 3079 3079 3079 3078 3078 3077 3077 3076 3075 3074 3074 3073 3072 3071 3069 3068 3067 3066 3065 3064 3064 3064 3064 3064 3063 3063 3062 3063 3063 3064 3066 3067 3068 3069 3069 3070 3072 3073 3073 3074 3075 3076
3094 3094 3094 3093 3093 3092 3092 3091 3091 3090 3088 3087 3087 3087 3087 3087 3087 3086 3086 3085 3085 3085 3085 3085 3085 3085 3085 3085 3084 3084 3084 3083 3083 3083 3083 3083 3083 3082 3082 3081 3081 3080 3079 3079 3078 3078 3077 3077 3077 3076 3076 3075 3074 3074 3073 3072 3071 3070 3069 3068 3066 3065 3063 3062 3061 3061 3061 3061 3060 3060 3059 3059 3059 3059 3060 3061 3061 3062 3063 3064 3065 3066 3067 3068 3069 3071
3094 3094 3094 3093 3093 3092 3092 3091 3090 3089 3087 3087 3087 3087 3087 3087 3087 3086 3086 3085 3084 3084 3084 3084 3084 3084 3084 3084 3083 3083 3082 3082 3081 3081 3081 3081 3081 3081 3081 3080 3080 3079 3078 3077 3077 3076 3076 3076 3076 3075 3075 3074 3073 3073 3072 3071 3071 3070 3068 3067 3066 3064 3062 3061 3060 3059 3058 3057 3057 3056 3055 3055 3055 3055 3055 3055 3056 3056 3057 3057 3058 3060 3060 3061 3063 3064
3093 3093 3093 3093 3093 3092 3092 3091 3090 3089 3088 3086 3086 3086 3086 3086 3086 3086 3085 3084 3083 3083 3083 3083 3083 3083 3083 3083 3082 3082 3081 3081 3080 3080 3080 3080 3080 3080 3079 3079 3078 3078 3077 3076 3076 3075 3074 3074 3074 3073 3073 3073 3072 3072 3071 3070 3069 3068 3067 3066 3065 3063 3061 3060 3059 3057 3056 3055 3054 3053 3052 3051 3051 3050 3050 3050 3050 3050 3051 3052 3052 3053 3054 3055 3056 3058
3093 3093 3093 3093 3092 3092 3092 3091 3091 3089 3087 3086 3086 3086 3086 3086 3086 3085 3084 3083 3082 3082 3082 3081 3082 3082 3082 3082 3081 3081 3080 3080 3079 3079 3079 3079 3078 3078 3078 3078 3077 3076 3076 3075 3075 3074 3073 3072 3072 3071 3071 3070 3070 3070 3069 3068 3067 3066 3065 3064 3063 3061 3060 3059 3057 3056 3055 3053 3052 3051 3049 3048 3047 3046 3046 3045 3045 3045 3045 3046 3047 3047 3048 3048 3049 3051
3092 3092 3092 3092 3091 3091 3091 3091 3090 3088 3086 3085 3086 3086 3085 3085 3085 3084 3084 3082 3081 3081 3081 3080 3080 3080 3080 3080 3080 3079 3079 3078 3078 3077 3077 3077 3077 3077 3077 3076 3075 3075 3074 3074 3073 3072 3071 3071 3070 3069 3069 3068 3068 3067 3066 3066 3065 3064 3063 3062 3061 3060 3059 3057 3056 3055 3053 3052 3050 3048 3047 3045 3044 3043 3042 3041 3041 3040 3040 3040 3041 3042 3042 3043 3043 3045
3091 3091 3091 3091 3090 3090 3090 3089 3088 3086 3085 3085 3085 3085 3085 3084 3084 3084 3083 3082 3080 3080 3079 3079 3079 3079 3079 3078 3078 3077 3077 3077 3076 3076 3076 3076 3076 3076 3075 3074 3074 3073 3072 3072 3071 3071 3070 3069 3068 3067 3066 3066 3065 3065 3064 3063 3063 3062 3061 3060 3059 3058 3057 3056 3054 3053 3051 3050 3048 3046 3044 3042 3041 3039 3038 3037 3036 3036 3035 3035 3035 3036 3037 3038 3038 3040
3090 3090 3089 3089 3089 3089 3089 3088 3087 3085 3084 3084 3084 3084 3084 3083 3083 3083 3082 3081 3080 3079 3079 3078 3078 3077 3077 3076 3076 3075 3075 3075 3075 3074 3074 3074 3074 3074 3073 3072 3072 3071 3070 3070 3069 3068 3068 3067 3065 3064 3064 3063 3063 3062 3062 3061 3060 3059 3059 3058 3057 3056 3054 3053 3052 3051 3049 3047 3046 3044 3042 3040 3038 3036 3035 3033 3032 3031 3030 3030 3029 3031 3032 3033 3034 3035
3089 3089 3088 3088 3088 3088 3087 3087 3086 3084 3083 3083 3083 3083 3083 3083 3082 3082 3081 3081 3080 3079 3078 3077 3077 3076 3075 3075 3074 3074 3074 3073 3073 3073 3073 3072 3072 3071 3071 3070 3070 3069 3068 3068 3067 3066 3066 3065 3064 3063 3062 3061 3060 3060 3059 3059 3058 3057 3057 3056 3055 3053 3052 3051 3050 3048 3047 3045 3044 3042 3039 3037 3035 3033 3031 3030 3028 3027 3026 3025 3025 3026 3028 3029 3030 3031
3088 3087 3087 3087 3087 3087 3086 3086 3085 3084 3083 3083 3083 3082 3082 3082 3081 3081 3080 3080 3079 3078 3077 3076 3075 3075 3074 3074 3073 3073 3072 3072 3072 3071 3071 3071 3070 3070 3069 3068 3068 3067 3067 3066 3065 3064 3063 3063 3062 3061 3060 3059 3058 3058 3057 3057 3056 3056 3055 3054 3053 3052 3051 3050 3048 3047 3045 3044 3042 3040 3038 3035 3033 3030 3028 3027 3025 3024 3023 3022 3022 3023 3024 3025 3026 3027
3086 3086 3086 3086 3086 3086 3085 3085 3084 3084 3083 3082 3082 3082 3081 3081 3080 3080 3079 3079 3078 3077 3076 3075 3075 3074 3073 3073 3072 3072 3071 3071 3070 3070 3069 3069 3069 3068 3068 3067 3067 3066 3065 3065 3064 3063 3062 3061 3060 3059 3058 3057 3056 3056 3055 3055 3054 3054 3053 3053 3052 3051 3049 3048 3047 3045 3044 3042 3040 3038 3036 3034 3031 3028 3026 3024 3023 3022 3021 3020 3020 3020 3021 3022 3023 3024
3085 3085 3085 3085 3085 3085 3084 3084 3083 3083 3082 3082 3081 3081 3081 3080 3080 3079 3078 3078 3077 3076 3076 3075 3074 3073 3072 3072 3071 3070 3070 3069 3069 3069 3068 3068 3068 3067 3067 3066 3066 3065 3065 3064 3063 3062 3061 3060 3059 3059 3058 3057 3056 3055 3054 3053 3053 3052 3052 3051 3050 3049 3047 3046 3044 3043 3041 3039 3038 3036 3034 3032 3030 3027 3024 3022 3021 3020 3019 3019 3019 3019 3018 3019 3020 3020
3084 3084 3084 3084 3084 3083 3083 3083 3082 3082 3081 3081 3080 3080 3080 3079 3079 3078 3078 3077 3077 3076 3075 3074 3073 3072 3071 3071 3070 3069 3069 3069 3068 3068 3068 3067 3067 3067 3066 3066 3065 3065 3064 3063 3063 3062 3061 3060 3059 3059 3058 3057 3056 3054 3053 3053 3052 3051 3050 3049 3048 3047 3045 3044 3042 3041 3039 3037 3036 3034 3032 3030 3028 3025 3023 3021 3019 3018 3017 3017 3017 3017 3016 3016 3017 3017
3082 3082 3082 3082 3082 3082 3082 3082 3081 3081 3081 3080 3079 3079 3078 3078 3078 3077 3077 3076 3076 3075 3074 3073 3073 3072 3071 3070 3070 3069 3069 3068 3068 3068 3067 3067 3066 3066 3066 3065 3064 3064 3063 3062 3061 3061 3060 3059 3059 3058 3057 3056 3055 3054 3053 3052 3051 3050 3049 3048 3047 3046 3044 3043 3041 3039 3038 3036 3034 3032 3030 3028 3026 3024 3021 3019 3017 3016 3015 3015 3015 3014 3014 3013 3013 3013
3080 3080 3080 3080 3080 3080 3081 3081 3080 3080 3079 3079 3078 3077 3077 3077 3076 3076 3076 3075 3075 3074 3073 3072 3072 3071 3070 3070 3069 3069 3068 3068 3068 3067 3067 3066 3066 3065 3065 3064 3063 3063 3062 3061 3060 3059 3059 3058 3058 3057 3056 3056 3055 3054 3053 3052 3050 3049 3048 3046 3045 3044 3043 3041 3040 3038 3037 3035 3033 3031 3029 3027 3025 3023 3021 3018 3016 3015 3013 3013 3012 3012 3011 3010 3009 3009
3078 3079 3079 3079 3079 3079 3079 3079 3079 3079 3079 3078 3077 3076 3075 3075 3075 3075 3074 3074 3074 3073 3072 3072 3071 3070 3070 3069 3069 3069 3068 3067 3067 3067 3066 3066 3065 3065 3064 3063 3063 3062 3061 3060 3059 3058 3057 3056 3056 3055 3055 3054 3053 3053 3052 3051 3050 3048 3047 3045 3044 3043 3041 3040 3038 3037 3036 3034 3032 3030 3028 3026 3024 3022 3020 3018 3016 3014 3012 3011 3009 3008 3008 3007 3005 3004
3076 3076 3076 3076 3076 3077 3078 3078 3078 3077 3077 3077 3076 3075 3074 3074 3074 3073 3073 3073 3073 3072 3071 3071 3070 3070 3069 3069 3069 3068 3068 3067 3067 3066 3066 3065 3065 3064 3064 3063 3062 3061 3060 3059 3058 3057 3056 3055 3054 3053 3053 3052 3052 3051 3050 3049 3048 3047 3045 3044 3042 3041 3040 3039 3037 3036 3034 3033 3031 3029 3027 3025 3023 3021 3019 3016 3014 3012 3011 3010 3008 3006 3004 3003 3002 3000